EHI
0 0 0 0 0 0 0 0 0 0 0 0 0 0 0 0 0 0 0 0 0 0 0 0 0 0 0 0 1 1 1 0 0 0 0 1 3 3 3 3 3 2 1 0
0 0 0 0 0 0 0 0 0 0 0 0 0 0 0 0 0 0 0 0 0 0 0 0 0 0 0 0 0 0 0 0 0 0 1 2 3 3 3 3 3 1 0 0
0 0 0 0 0 0 0 0 0 0 0 0 0 0 0 0 0 0 0 0 0 0 0 0 0 0 0 0 0 0 0 0 0 0 1 2 3 3 3 3 2 1 0 0
0 0 0 0 0 0 0 0 0 0 0 0 0 0 0 0 0 0 0 0 0 0 0 0 0 0 0 0 0 0 0 0 0 0 0 1 3 3 3 3 2 1 0 0
0 0 0 0 0 0 0 0 0 0 0 0 0 0 0 0 0 0 0 0 0 0 0 0 0 0 0 0 0 0 0 0 0 0 0 1 2 3 3 3 2 1 0 0
0 0 0 0 0 0 0 0 0 0 0 0 0 0 0 0 0 0 0 0 0 0 0 0 0 0 0 0 0 0 0 0 0 0 0 1 2 3 2 3 2 1 0 0
0 0 0 0 0 0 0 0 0 0 0 0 0 0 0 0 0 0 0 0 0 0 0 0 0 0 0 0 0 0 0 0 0 0 0 1 2 2 1 2 2 1 0 0
0 0 0 0 0 0 0 0 0 0 0 0 0 0 0 0 0 0 0 0 0 0 0 0 0 0 0 0 0 0 0 0 0 0 0 1 2 2 1 1 1 0 0 0
0 0 0 0 0 0 0 0 0 0 0 0 0 0 0 0 0 0 0 0 0 0 0 0 0 0 0 0 0 0 0 0 1 1 1 0 1 1 1 0 0 0 0 0
0 0 0 0 0 0 0 0 0 0 0 0 0 0 0 0 0 0 0 0 0 0 0 0 0 0 0 0 0 0 0 0 1 2 2 1 0 0 0 0 0 0 0 0
0 0 0 0 0 0 0 0 0 0 0 0 0 0 0 0 0 0 0 0 0 0 0 0 0 0 0 0 0 0 0 0 1 1 1 1 0 0 0 0 0 0 0 0
0 0 0 0 0 0 0 0 0 0 0 0 0 0 0 0 0 0 0 0 0 0 0 0 0 0 0 0 0 0 0 0 0 0 0 0 0 0 0 0 0 0 0 0
0 0 0 0 0 0 0 0 0 0 0 0 0 0 0 0 0 0 0 0 0 0 0 0 0 0 0 0 0 0 0 0 0 0 0 0 0 0 0 0 0 0 0 0
0 0 0 0 0 0 0 0 0 0 0 0 0 0 0 0 0 0 0 0 0 0 0 0 0 0 0 0 0 0 0 0 0 0 0 0 0 0 0 0 0 0 0 0
0 0 0 0 0 0 0 0 0 0 0 0 0 0 0 0 0 0 0 0 0 0 0 0 0 0 0 0 0 0 0 0 0 0 0 0 0 0 0 0 0 0 0 0
0 0 0 0 0 0 0 0 0 0 0 0 0 0 0 0 0 0 0 0 0 0 0 0 0 0 0 0 0 0 0 0 0 0 0 0 0 0 0 0 0 0 0 0
0 0 0 0 0 0 0 0 0 0 0 0 0 0 0 0 0 0 0 0 0 0 0 0 0 0 0 0 0 0 0 0 0 0 0 0 0 0 0 0 0 0 0 0
0 0 0 0 0 0 0 0 0 0 0 0 0 0 0 0 0 0 0 0 0 0 0 0 0 0 0 0 0 0 0 0 0 0 0 0 0 0 0 0 0 0 0 0
0 0 0 0 0 0 0 0 0 0 0 0 0 0 0 0 0 0 0 0 0 0 0 0 0 0 0 0 0 0 0 0 0 0 0 0 0 0 0 0 0 0 0 0
0 0 0 0 0 0 0 0 0 0 0 0 0 0 0 0 0 0 0 0 0 0 0 0 0 0 0 0 0 0 0 0 0 0 0 0 0 0 0 0 0 0 0 0
0 0 0 0 0 0 0 0 0 0 0 0 0 0 0 0 0 0 0 0 0 0 0 0 0 0 0 0 0 0 0 0 0 0 0 0 0 0 0 0 0 0 0 0
0 0 0 0 0 0 0 0 0 0 0 0 0 0 0 0 0 0 0 0 0 0 0 0 0 0 0 0 0 0 0 0 0 0 0 0 0 0 0 0 0 0 0 0
0 0 0 0 0 0 0 0 0 0 0 0 0 0 0 0 0 0 0 0 0 0 0 0 0 0 0 0 0 0 0 0 0 0 0 0 0 0 0 0 0 0 0 0
0 0 0 0 0 0 0 0 0 0 0 0 0 0 0 0 0 0 0 0 0 0 0 0 0 0 0 0 0 0 0 0 0 0 0 0 0 0 0 0 0 0 0 0
0 0 0 0 0 0 0 0 0 0 0 0 0 0 0 0 0 0 0 0 0 0 0 0 0 0 0 0 0 0 0 0 0 0 0 0 0 0 0 0 0 0 0 0
0 0 0 0 0 0 0 0 0 0 0 0 0 0 0 0 0 0 0 0 0 0 0 0 0 0 0 0 0 0 0 0 0 0 0 0 0 0 0 0 0 0 0 0
Wind_Speed
2 3 2 5 5 3 2 3 5 6 3 3 7 10 9 6 4 5 5 4 4 4 3 1 1 1 1 1 1 1 1 0 1 1 1 1 1 1 1 1 1 1 2 2
3 2 4 3 3 2 2 4 5 5 2 2 6 11 8 5 5 6 6 6 5 3 2 1 1 1 1 1 1 1 1 1 1 1 1 1 1 1 1 1 1 1 1 2
4 3 1 2 2 2 3 4 4 4 5 2 4 8 5 3 3 3 4 4 4 5 4 2 1 1 1 1 2 2 2 1 1 1 1 1 1 1 0 1 1 1 2 2
2 2 0 1 2 2 4 3 3 3 2 3 1 6 7 3 4 4 4 3 4 3 3 2 2 1 2 2 1 1 1 1 1 1 2 2 2 2 2 1 1 2 1 2
2 1 0 2 2 2 3 1 0 1 1 2 1 3 9 2 5 6 4 4 3 3 3 3 2 2 1 1 0 1 0 0 0 1 2 3 2 2 1 1 1 2 1 2
2 1 1 2 1 1 1 2 3 3 2 3 4 4 9 4 5 5 4 3 3 2 2 2 1 1 0 0 0 1 0 0 0 1 1 2 3 2 1 2 2 2 1 1
4 2 1 1 2 2 3 4 4 5 3 6 2 4 10 5 4 4 4 4 3 2 2 2 1 1 1 1 1 1 1 1 1 1 1 2 2 2 3 3 2 2 2 2
1 4 2 0 2 2 1 4 5 4 5 5 2 7 8 4 3 3 2 2 2 2 2 2 2 2 2 2 1 1 1 1 1 1 2 1 2 2 2 2 2 3 2 3
3 5 1 0 0 4 3 2 3 3 1 4 6 7 9 2 3 2 2 2 2 2 2 2 2 2 2 2 2 2 2 2 2 2 2 2 2 2 2 2 2 2 2 2
3 3 3 2 2 2 2 4 3 3 1 5 6 5 5 5 5 4 3 3 3 2 2 3 3 2 2 2 2 1 2 2 2 2 2 1 2 2 2 2 2 2 2 2
2 2 3 1 3 4 3 2 3 2 3 3 5 8 5 5 4 4 5 4 3 3 3 3 3 2 2 2 1 1 1 1 2 2 2 1 2 2 1 2 2 2 2 3
3 3 3 5 2 1 4 5 6 4 4 4 4 10 3 3 3 3 4 4 3 3 3 3 3 2 2 2 1 1 1 1 2 2 2 2 2 1 1 2 2 2 2 3
4 3 1 4 2 1 2 3 4 3 2 4 5 10 1 1 2 2 3 4 4 3 3 2 2 2 2 2 2 2 2 2 2 2 1 2 2 1 2 2 2 2 2 3
4 4 6 8 6 4 4 5 5 5 5 6 11 12 8 6 6 5 4 4 4 3 3 3 3 3 3 2 2 2 2 2 2 1 1 2 2 2 2 2 2 2 2 2
3 4 5 8 6 4 7 8 9 10 10 10 11 11 12 8 7 6 5 4 4 4 4 3 3 3 3 3 2 2 2 2 2 1 1 2 2 1 1 1 2 2 2 2
1 2 2 5 5 6 9 11 11 12 10 12 12 16 10 7 6 6 6 5 5 5 5 4 3 3 3 3 3 2 2 2 1 2 2 2 1 1 1 1 1 1 2 2
2 2 1 5 4 4 10 12 12 9 9 10 14 14 5 5 7 7 6 6 6 5 5 4 4 4 4 4 3 3 3 2 2 2 2 2 2 1 1 1 1 1 2 2
5 3 2 3 2 9 9 3 8 9 10 10 10 9 6 7 6 5 5 5 5 5 4 4 4 4 3 3 2 2 2 2 2 2 2 2 1 2 1 1 1 2 1 1
5 5 3 2 5 11 8 4 5 7 9 9 11 11 7 3 3 5 4 4 5 5 4 4 3 3 3 2 2 1 2 2 2 2 2 2 2 1 1 1 1 1 1 1
2 3 4 3 4 9 7 3 3 2 7 5 7 8 5 1 2 6 2 1 3 3 2 2 2 2 2 2 1 1 2 2 2 3 2 2 2 2 2 2 2 1 1 1
3 3 5 6 7 11 6 2 4 3 7 2 3 5 4 6 6 4 2 2 2 2 2 2 2 2 3 2 1 2 2 3 3 2 2 1 1 2 2 2 1 1 1 0
8 6 6 5 7 11 3 5 7 7 3 1 2 3 4 5 4 3 3 3 2 2 2 2 2 3 2 1 1 2 3 3 1 1 1 1 1 1 1 1 1 1 1 0
7 8 6 9 10 5 4 6 5 3 3 3 3 3 3 4 4 4 3 3 3 3 2 2 2 2 2 1 2 3 3 1 1 1 1 1 1 0 1 1 1 0 0 0
5 3 4 7 10 8 7 6 6 5 5 5 4 3 3 4 4 4 3 3 3 2 2 2 2 2 3 2 2 3 2 1 1 1 1 1 0 0 0 0 1 1 1 1
6 5 5 8 9 7 6 7 6 5 4 4 3 3 4 4 4 4 3 3 3 2 2 2 2 3 3 3 2 2 1 1 1 1 1 1 1 1 0 0 1 1 2 2
7 9 8 9 8 6 6 5 4 5 5 5 4 3 3 4 4 3 3 3 2 2 2 2 3 3 3 2 2 2 1 2 2 1 1 1 1 0 0 0 1 2 2 2
Wind_Direction
47 83 204 220 211 213 215 233 258 268 284 266 255 268 275 270 251 245 242 238 237 243 257 266 238 184 135 116 134 150 137 159 126 132 151 180 222 221 220 222 212 200 184 178
52 258 249 229 210 217 224 261 270 289 311 275 281 277 269 248 230 231 233 233 233 240 274 297 300 244 178 182 205 197 179 166 163 178 184 196 207 220 216 214 210 209 196 195
181 244 256 169 192 230 245 234 254 275 318 316 309 293 267 260 240 249 239 230 223 213 221 239 267 254 225 227 229 212 202 187 178 159 124 76 55 11 351 228 231 235 222 210
229 286 261 181 223 193 254 240 248 271 305 294 3 292 284 273 280 265 259 245 235 227 214 211 217 242 233 239 253 242 214 184 173 152 166 166 188 217 239 241 246 256 237 224
260 294 236 223 241 192 228 329 269 248 191 299 283 247 282 314 276 272 263 247 239 223 212 216 217 223 245 244 266 280 243 170 156 172 190 188 206 222 248 258 264 268 257 241
273 279 207 222 273 176 141 47 46 48 76 275 228 205 276 246 244 275 285 270 253 233 225 233 232 183 204 170 156 232 227 258 207 186 203 201 210 215 241 266 255 271 276 261
325 308 325 99 61 29 59 76 22 354 349 256 212 220 254 252 244 246 260 263 264 242 227 244 249 237 237 243 236 215 193 260 263 232 246 225 218 207 221 240 243 257 271 274
288 284 265 117 162 174 171 137 156 215 247 284 262 239 255 261 267 270 265 255 255 250 251 252 253 243 238 244 254 251 222 248 254 248 266 246 227 215 231 239 237 238 246 258
201 259 313 310 175 143 139 171 160 142 239 279 269 279 299 288 307 313 312 324 293 277 276 273 274 270 255 248 243 234 235 255 256 252 264 249 229 222 236 249 246 245 252 260
166 258 289 312 75 48 135 142 111 137 224 273 285 272 262 287 289 292 289 285 288 301 294 289 280 278 274 255 246 230 228 241 256 251 249 266 244 236 232 240 249 251 257 257
148 196 299 342 195 192 138 135 138 152 184 204 277 271 228 233 259 266 269 275 278 279 277 282 284 286 289 287 262 239 236 256 261 254 256 255 249 239 232 241 251 252 257 254
160 143 259 254 251 212 183 180 161 176 233 208 237 268 261 228 256 260 275 283 281 276 282 286 287 299 303 292 279 265 256 253 253 249 247 245 250 245 243 257 267 260 258 257
152 141 328 331 322 305 222 200 184 164 168 200 222 263 285 319 302 287 276 282 284 286 290 297 298 292 291 285 273 262 264 260 259 244 235 246 249 244 254 263 275 274 269 266
148 177 197 222 234 199 226 216 189 175 206 230 234 257 284 298 296 297 290 280 280 282 285 283 286 284 282 277 267 260 265 261 257 244 239 248 248 243 249 264 271 275 276 273
142 214 233 252 260 243 241 236 213 210 216 225 246 251 262 265 265 270 269 269 277 286 286 280 283 284 281 281 279 273 276 272 253 237 241 255 254 248 256 280 285 287 289 286
135 215 248 268 258 256 261 248 230 229 229 238 258 267 259 259 260 260 258 254 262 271 275 281 286 286 276 268 270 269 266 264 247 237 251 261 263 256 260 279 292 301 302 305
167 173 235 269 295 308 264 233 214 218 214 206 232 250 255 261 259 257 253 246 251 260 269 273 270 270 266 261 256 253 252 250 234 236 255 266 253 248 254 269 289 290 293 301
172 175 213 276 333 249 248 219 205 223 237 221 237 251 245 248 265 267 239 232 254 260 265 270 268 272 273 267 275 273 259 236 230 235 244 247 238 246 259 265 276 278 279 279
192 177 193 210 253 273 284 239 193 208 258 224 233 251 257 267 310 286 240 220 237 248 256 260 264 268 271 267 272 280 266 244 235 242 243 238 224 240 260 264 268 269 266 276
154 173 185 201 235 254 259 236 190 146 277 244 218 237 242 178 271 270 262 243 251 260 263 273 291 286 275 270 255 249 254 243 244 248 244 230 216 226 238 248 256 266 259 271
168 184 205 218 242 263 256 207 137 184 253 259 217 230 214 208 227 256 278 277 273 281 286 287 293 281 272 260 230 245 249 247 250 247 237 230 220 226 226 237 245 230 257 310
186 185 200 194 229 255 205 152 191 225 257 241 237 229 223 239 259 270 270 270 276 287 292 292 289 285 288 263 218 245 255 257 249 228 227 233 229 229 216 202 224 205 173 171
208 200 198 205 227 252 189 210 233 233 246 249 241 243 224 240 257 266 270 269 267 267 278 284 272 284 297 279 218 235 258 253 231 203 225 243 241 226 200 179 180 172 167 184
244 210 216 256 264 264 259 254 255 240 238 249 241 234 217 235 249 260 267 270 274 275 278 281 266 269 284 285 254 242 252 220 178 201 221 214 162 324 69 175 195 195 205 222
223 189 220 254 269 282 266 242 245 252 257 264 259 233 229 229 243 246 257 261 263 276 284 275 254 256 270 279 272 260 239 187 182 202 204 184 159 184 181 288 250 246 237 231
207 198 205 240 240 231 261 262 242 240 249 249 249 256 247 224 232 243 252 256 254 263 273 278 267 261 267 267 273 272 223 188 181 189 187 181 181 185 151 52 353 333 302 295